Wind_Speed
2 0 3 5 6 7 7 6 6 5 4 2 2 3 4 5 7 5 4 6 1 2 8 7 8 15 18 18 16 9 6 9 14 13 14 13 12 11 11 12 13 14 16 16 20 25 29 30 31 31 31 32 33 35 37 38 39 42 42 42 43 43 44 44 43 42 41 40 39 38 40 41 40 39 37 36 35 34 34 32 31 30 28 27 26 25
1 2 6 8 8 7 5 5 4 4 3 1 2 4 5 5 8 6 3 5 1 2 6 3 5 15 17 17 17 10 7 12 15 15 17 17 13 11 12 14 14 13 12 10 13 21 26 28 30 31 31 33 35 37 39 41 42 43 43 45 46 45 44 45 45 45 44 43 42 41 42 42 41 40 39 38 37 36 35 33 32 31 29 28 28 27
2 6 9 7 5 4 3 4 5 3 3 1 2 1 4 4 5 7 3 4 2 2 4 4 5 15 19 17 17 14 11 13 14 14 16 15 13 12 13 14 14 13 11 10 12 16 23 28 29 31 32 35 38 39 41 43 43 43 44 46 47 46 45 46 46 46 45 45 45 43 42 42 41 40 40 39 38 37 36 35 34 32 31 31 30 29
2 6 7 4 5 6 2 3 4 2 1 2 3 2 5 3 1 4 4 4 2 3 3 5 6 13 17 14 14 13 10 10 10 11 14 12 12 14 13 12 13 14 14 14 13 14 19 25 28 31 33 35 36 36 39 41 42 43 45 46 46 46 46 47 47 47 46 44 43 42 41 41 40 39 40 39 38 38 38 37 35 35 34 33 31 31
6 5 2 4 5 5 3 1 3 3 3 3 5 6 7 5 4 6 4 5 4 3 2 3 6 8 9 8 10 7 4 7 6 7 11 11 11 12 10 12 14 15 15 15 15 14 15 19 26 31 33 34 35 37 40 42 43 44 45 46 46 46 46 47 47 47 46 42 40 38 35 33 34 33 35 37 38 39 39 39 39 37 35 34 33 32
8 4 4 5 2 3 4 3 4 6 3 4 5 9 9 6 4 4 4 5 4 4 2 2 4 7 5 8 13 8 5 9 5 4 11 10 9 9 10 13 13 13 14 14 14 14 13 18 24 28 31 32 34 39 42 43 44 44 44 44 45 45 46 47 47 47 46 43 42 40 35 32 32 30 33 39 41 41 42 41 40 38 36 36 35 34
3 2 3 4 4 3 3 5 5 7 3 4 4 5 5 4 2 0 3 3 1 4 4 3 2 6 8 12 15 8 8 13 8 6 11 10 8 9 11 12 11 11 12 12 13 12 13 17 20 23 30 33 36 41 42 41 42 43 42 43 45 46 46 47 47 47 46 45 43 43 42 40 38 36 37 42 43 42 43 42 40 39 38 37 36 36
2 2 3 3 4 3 3 5 5 8 6 3 3 3 5 5 2 2 2 1 3 4 4 3 5 4 7 10 9 5 9 15 12 10 10 9 9 10 11 12 11 11 11 10 12 12 13 16 19 24 31 37 41 43 39 38 41 44 45 45 46 46 46 46 46 46 47 47 45 45 43 42 42 42 42 42 42 41 42 42 41 41 40 39 38 37
3 4 4 5 3 3 5 5 6 9 5 4 3 4 4 4 3 3 4 1 1 3 5 3 5 2 6 8 5 4 7 13 14 13 11 9 9 8 9 11 11 11 10 9 11 12 13 16 23 30 34 38 41 39 38 40 43 43 44 44 44 45 45 44 45 46 48 48 47 46 44 42 42 43 41 39 40 40 40 41 42 42 41 40 39 38
1 3 6 7 4 5 5 3 5 8 4 3 5 4 4 4 3 3 4 2 2 1 8 6 6 4 6 6 5 3 3 9 11 11 9 9 9 8 8 9 9 9 8 9 10 11 12 18 25 29 30 32 35 37 38 40 40 40 41 41 42 44 45 44 44 46 47 48 46 45 45 43 42 41 39 36 36 38 39 40 42 42 42 42 40 39
2 1 3 4 4 5 4 2 2 4 3 4 5 3 4 4 3 3 2 3 3 3 9 7 10 7 5 4 5 5 5 7 7 8 8 8 9 8 8 8 8 7 6 7 8 9 10 16 21 22 24 28 31 33 34 35 37 38 40 41 43 44 45 44 44 45 47 48 47 46 46 46 44 41 39 36 36 37 39 40 41 43 43 42 41 40
3 0 2 2 2 4 5 3 2 2 3 4 3 3 3 4 3 4 4 3 1 6 7 4 6 6 5 6 5 6 7 6 6 7 9 9 9 9 8 7 6 5 6 6 7 7 7 10 13 16 23 27 27 28 31 35 37 37 38 40 41 41 43 43 44 45 47 48 48 47 47 47 46 43 41 40 40 40 41 42 42 41 41 41 41 41
3 4 3 2 1 5 5 3 2 3 3 4 3 4 2 4 3 3 3 0 3 6 4 1 3 3 7 9 9 10 13 12 8 8 9 10 11 11 10 8 6 5 6 6 6 7 6 7 8 13 19 22 23 28 33 35 35 35 37 38 39 41 43 44 44 45 46 48 49 49 48 48 46 44 43 43 42 42 42 43 42 41 42 42 43 43
3 4 1 1 2 3 7 5 2 2 2 5 4 4 3 1 1 4 4 3 5 6 3 1 2 3 5 7 10 14 17 15 7 4 7 9 10 12 12 11 9 8 7 7 7 7 6 6 7 10 15 18 23 28 31 32 34 34 35 36 39 41 43 43 44 45 46 47 49 49 49 48 46 45 44 44 43 42 42 42 42 43 44 44 46 46
2 5 2 5 2 4 7 6 4 5 4 4 4 4 4 4 4 5 4 4 6 5 3 2 1 3 3 4 7 10 11 10 9 10 9 9 9 10 11 11 11 10 9 8 7 7 7 7 8 10 12 15 20 24 25 28 31 32 34 36 39 41 42 43 44 44 46 47 48 48 48 47 46 45 45 44 43 42 42 42 42 43 44 45 47 47
2 6 5 2 0 5 6 3 4 6 2 2 2 4 2 4 5 3 4 5 2 3 3 3 3 5 5 4 8 8 9 12 14 14 15 15 13 11 12 13 13 12 12 10 9 8 8 9 10 10 11 12 15 17 20 25 28 31 34 36 38 40 40 41 42 44 45 46 46 46 46 46 45 44 43 43 43 42 43 43 43 43 44 44 45 45
1 6 4 2 2 4 4 1 1 1 1 1 2 3 4 3 4 2 3 1 3 1 4 2 4 6 3 4 11 16 17 18 18 17 16 16 17 17 15 15 15 14 13 12 11 10 10 10 12 14 13 13 13 14 18 22 26 29 31 32 33 35 35 36 40 43 44 44 43 44 45 45 45 44 45 45 44 44 43 43 42 42 42 42 42 42
1 6 4 1 3 4 1 1 4 3 3 4 3 4 4 1 3 2 2 3 2 3 4 1 6 7 4 3 11 20 20 19 18 17 17 18 19 18 16 16 16 15 15 15 15 14 13 14 17 19 20 18 16 15 16 19 21 24 27 28 29 31 32 35 37 39 40 40 41 42 43 44 45 45 45 45 44 43 42 42 41 41 41 41 41 40
1 4 5 1 1 4 3 2 5 4 2 4 3 3 0 2 2 1 1 3 2 4 5 3 6 4 2 3 10 15 15 16 17 16 17 19 18 16 15 16 18 17 16 16 16 16 14 17 21 24 24 25 23 20 18 17 18 20 23 26 27 29 31 32 33 34 36 37 39 40 41 42 43 43 43 42 41 41 41 42 42 41 41 40 39 39
1 1 4 2 1 2 3 1 2 3 2 2 2 3 1 3 3 1 2 2 2 5 6 4 4 1 1 3 7 9 11 13 15 15 15 15 14 13 13 14 16 16 15 15 15 15 14 17 23 26 26 27 25 23 21 19 17 17 19 21 25 27 28 29 30 32 34 36 37 37 37 39 40 40 41 40 40 40 41 41 41 41 40 39 38 38
1 1 4 5 3 2 2 3 5 3 2 2 2 3 2 2 1 1 2 2 2 4 4 3 5 1 1 2 5 8 10 11 12 13 12 12 12 12 12 13 13 14 14 15 14 14 14 18 25 29 29 30 28 26 24 20 18 17 17 18 20 23 25 27 29 31 33 34 35 35 36 37 38 39 39 38 39 39 39 40 40 40 39 38 38 38
1 2 3 5 5 4 6 5 6 6 5 4 3 3 3 3 1 3 5 2 1 3 3 3 5 2 0 2 4 6 8 8 11 11 11 12 12 12 13 13 13 13 14 15 15 15 14 19 26 29 31 33 32 32 31 27 24 21 19 18 18 20 23 25 27 28 30 31 32 34 35 35 36 36 37 37 37 38 38 38 38 38 38 37 37 37
2 2 2 6 7 9 9 2 1 2 3 4 2 1 0 2 4 3 6 3 2 2 1 1 4 2 1 2 4 6 7 8 10 11 11 12 10 11 13 14 14 14 14 14 15 14 15 21 26 29 32 33 33 34 35 34 31 27 24 21 19 20 22 23 24 25 27 28 30 32 32 32 33 34 35 36 36 37 37 37 37 37 37 37 37 36
1 2 2 4 6 9 6 3 4 2 3 3 1 1 1 1 3 3 5 1 0 5 4 3 5 3 3 1 3 4 6 7 8 11 13 12 10 10 12 13 14 15 15 16 15 14 17 22 25 27 29 30 32 33 34 35 34 32 29 25 23 22 22 22 23 23 25 27 28 29 29 30 31 32 33 34 35 36 36 36 36 36 36 36 35 34
2 1 0 3 7 9 6 5 5 5 3 1 2 2 4 5 4 4 3 1 2 8 8 7 8 4 4 2 7 8 9 10 10 11 12 12 11 10 10 11 12 13 14 16 16 15 17 19 21 24 26 27 29 32 34 34 35 34 32 29 26 25 24 23 22 23 24 25 26 27 28 29 30 31 33 34 35 35 35 36 36 35 35 35 34 33
3 1 1 2 6 8 7 6 4 4 5 2 1 5 7 8 7 4 2 2 3 6 6 6 6 4 4 12 16 15 16 15 13 13 12 12 12 11 10 10 11 12 14 15 16 15 15 15 18 24 27 26 27 30 32 34 34 34 33 32 29 27 26 24 23 23 23 24 26 27 28 29 30 32 33 34 34 34 34 34 35 34 34 33 32 32
1 2 1 4 7 8 8 8 4 4 8 8 7 8 7 6 5 2 1 3 3 5 6 4 4 6 9 16 18 16 16 16 15 15 14 13 12 10 9 10 11 12 12 14 14 13 14 15 18 24 26 26 27 29 31 33 34 34 34 33 33 30 27 26 24 24 24 25 26 28 29 30 32 33 33 33 33 33 33 33 33 33 33 32 31 31
1 3 2 5 9 10 7 8 8 6 5 4 7 8 7 6 6 6 2 3 4 5 5 5 7 4 5 12 14 14 15 14 14 13 12 13 13 10 8 10 13 13 13 14 12 13 15 16 17 21 24 26 29 32 33 33 33 34 34 34 34 32 29 27 26 25 25 26 27 29 31 32 32 32 31 32 32 32 33 33 32 32 31 31 30 30
2 5 3 3 9 9 6 7 8 4 1 4 5 6 7 6 7 6 1 4 4 3 5 8 8 4 3 9 11 12 13 13 13 10 9 12 14 11 9 10 12 13 15 15 14 14 16 17 16 19 23 26 30 33 34 33 33 34 35 35 35 34 32 29 27 27 27 27 29 31 31 31 30 30 31 31 32 32 32 32 32 31 31 30 30 29
3 3 3 3 10 10 6 7 5 2 5 4 5 5 6 5 5 5 3 4 3 4 6 7 9 7 2 7 10 11 12 12 11 8 8 11 14 13 10 10 11 12 13 13 13 14 16 16 17 21 25 26 28 31 33 33 33 34 35 35 35 35 34 32 29 28 28 30 32 32 31 30 30 30 31 32 32 32 32 32 32 31 31 30 30 29
2 2 3 3 7 9 5 6 5 3 6 4 4 5 5 5 4 5 5 3 2 4 6 6 8 7 0 6 11 11 11 12 11 11 10 11 14 13 10 11 11 11 13 12 11 13 15 15 16 21 24 25 28 31 32 33 33 34 35 35 35 35 35 33 30 29 30 32 33 32 31 30 30 31 32 32 32 32 33 32 32 31 31 30 29 29
2 1 3 5 5 7 3 4 7 1 7 5 4 5 5 4 4 4 5 5 3 4 6 5 5 5 3 7 11 11 12 14 13 13 11 13 15 11 9 11 10 10 14 13 11 13 14 13 15 20 22 24 29 32 32 33 35 35 36 37 37 37 36 34 31 30 32 33 33 31 30 30 31 31 32 32 32 33 32 32 31 31 30 29 29 28
3 0 3 3 3 7 5 6 9 3 2 0 1 2 4 4 5 6 7 7 5 4 3 4 4 5 7 9 12 14 15 16 14 12 11 15 16 9 7 9 11 13 16 14 12 13 13 13 17 21 23 26 30 32 32 34 36 37 38 39 39 38 36 35 33 31 31 32 31 30 30 30 31 31 32 32 32 32 31 31 31 31 30 30 29 28
1 1 2 1 1 6 10 11 9 5 3 2 5 4 3 5 5 8 10 11 7 3 1 4 6 7 8 9 12 14 14 14 14 13 14 15 12 7 8 11 15 18 18 13 11 12 13 17 22 24 26 30 31 31 34 36 37 39 40 40 39 38 36 35 35 34 32 31 30 29 29 30 30 31 32 31 31 31 31 31 31 30 30 29 29 28
3 3 2 1 2 4 7 8 7 5 2 4 7 4 8 6 6 9 11 9 5 3 2 6 7 8 9 10 11 12 12 13 15 16 17 15 9 6 11 16 19 20 17 13 12 13 17 22 25 28 31 31 30 33 37 39 39 40 41 40 39 38 36 34 35 35 33 31 30 28 28 29 30 31 31 30 30 30 30 30 30 29 29 29 29 29
2 2 1 1 2 2 3 4 4 4 1 4 2 6 10 5 5 10 10 4 2 3 3 6 8 9 9 10 9 10 12 15 14 13 13 11 7 12 16 18 20 19 14 12 14 17 21 24 28 32 32 29 31 36 38 39 39 39 41 40 38 37 36 34 33 33 32 30 29 28 28 30 30 30 29 28 29 29 29 29 28 29 29 29 29 28
2 0 1 1 1 0 1 3 4 4 1 2 1 5 7 5 6 9 9 6 1 0 2 6 9 10 9 9 9 10 12 14 12 8 7 8 13 17 19 20 22 17 13 16 22 23 25 29 34 35 30 30 35 37 35 36 37 37 38 38 37 36 35 32 31 31 31 30 29 28 28 29 29 28 28 28 28 29 28 28 28 28 28 28 28 28
3 0 2 1 1 2 1 4 3 4 4 1 1 4 4 5 7 7 8 5 1 4 4 7 10 11 10 11 11 11 11 13 13 8 6 10 15 17 20 24 23 16 13 21 27 25 27 33 35 32 30 33 38 37 36 37 37 34 33 32 33 33 32 30 30 31 29 29 29 27 26 27 28 28 27 28 29 29 28 28 27 28 28 28 28 27
5 2 3 2 1 2 1 2 3 4 3 2 2 6 4 6 9 6 5 4 2 6 10 11 11 11 11 10 11 10 9 11 13 11 10 14 17 18 18 22 24 24 24 27 25 22 27 33 32 31 32 33 35 36 38 38 36 33 31 30 31 30 27 27 29 30 29 28 27 25 25 25 26 27 27 28 28 28 28 27 27 27 27 27 27 26
5 4 3 3 1 1 1 2 3 3 2 2 4 6 5 7 7 6 5 6 6 13 15 12 11 13 11 9 9 7 6 7 10 13 16 20 21 20 19 19 23 28 32 30 24 23 28 30 29 31 32 29 31 36 37 36 33 31 29 29 29 26 24 27 29 30 29 27 24 22 23 24 25 26 27 27 27 26 26 26 25 26 26 26 25 25
2 2 1 2 2 3 3 3 3 3 2 2 6 7 7 7 5 4 7 9 12 18 16 10 11 13 10 9 7 6 6 8 10 14 18 21 20 20 22 24 26 29 30 29 28 29 31 29 29 31 30 27 29 33 33 32 30 29 29 29 27 25 27 29 29 28 26 23 20 19 20 22 24 25 25 25 25 24 24 24 25 25 25 25 24 23
0 1 1 1 1 2 3 3 3 4 3 1 8 7 5 6 5 5 9 12 16 18 14 10 12 12 10 9 8 8 10 12 13 15 17 18 17 17 20 23 26 28 29 30 32 31 29 29 31 32 28 26 28 29 29 28 26 26 27 26 25 28 31 30 28 25 22 19 17 17 18 20 22 23 23 23 23 23 23 23 23 24 24 24 23 23
2 1 2 1 2 0 1 1 2 3 3 5 10 6 2 3 5 8 10 13 15 14 12 11 12 10 9 10 11 12 13 14 15 15 15 15 16 16 19 21 22 24 27 29 30 28 27 29 33 31 26 25 28 29 28 26 24 24 24 24 25 29 31 29 26 23 19 16 14 14 16 17 19 21 21 22 22 23 23 22 22 22 22 22 23 23
2 2 1 2 1 2 0 2 2 3 4 6 7 4 3 5 7 8 11 14 13 11 9 9 10 9 9 11 13 14 14 15 15 15 14 15 15 15 18 20 21 22 25 27 27 27 28 31 33 29 25 26 29 29 27 26 24 23 24 25 28 30 29 27 24 20 17 14 12 11 12 14 16 17 19 19 20 20 20 20 20 21 21 22 22 22
2 3 3 2 2 2 3 6 5 5 6 4 1 3 9 11 10 10 12 14 13 10 7 7 10 12 12 12 13 13 13 14 15 15 14 15 14 14 16 19 21 22 24 25 25 26 28 31 30 27 26 29 29 28 27 26 24 23 24 27 29 29 27 25 23 19 15 12 10 9 10 11 12 14 15 16 17 18 18 19 19 19 20 21 21 21
1 2 3 1 2 3 3 4 5 6 7 6 5 8 12 12 10 11 14 15 13 9 8 9 13 15 14 12 12 13 13 13 15 16 16 15 14 14 16 19 22 23 24 24 23 25 28 30 28 26 28 30 28 25 26 26 25 24 25 27 28 27 26 24 21 18 15 11 9 8 9 10 10 11 12 13 14 16 16 18 19 19 19 19 20 20
1 2 2 0 2 3 3 4 6 7 8 10 12 13 12 11 11 11 13 14 13 12 12 14 15 15 14 13 14 15 17 16 17 17 16 14 13 13 14 17 20 21 22 22 21 24 27 27 26 27 28 28 26 25 26 26 26 25 26 26 26 25 24 22 19 17 14 11 9 8 8 9 9 10 11 11 13 14 15 16 17 18 18 19 20 20
1 1 1 1 1 3 6 9 11 12 12 11 11 11 11 12 14 15 14 15 16 15 16 17 16 13 12 14 15 17 18 18 18 18 17 14 12 11 14 19 21 21 21 20 20 23 24 24 25 26 26 26 26 26 26 26 26 26 26 26 24 23 22 20 18 15 13 10 9 8 8 8 9 10 10 11 12 13 14 15 16 17 19 20 21 21
0 1 1 2 3 5 7 10 12 14 12 8 7 10 11 12 15 17 17 16 16 15 16 18 18 16 15 16 17 17 18 18 17 17 17 14 11 13 18 21 22 22 21 19 19 22 23 23 24 25 25 26 26 26 26 26 26 26 25 24 23 21 20 19 17 14 13 11 10 9 9 9 10 11 11 11 12 13 14 15 16 18 19 20 20 21
2 2 2 3 4 5 7 10 11 11 9 7 11 15 15 13 14 16 16 15 15 15 16 17 19 20 20 20 19 17 17 17 17 16 15 12 14 19 23 23 23 22 20 18 19 23 24 24 24 24 24 25 25 25 25 25 26 25 24 23 22 20 19 18 17 15 13 11 10 10 10 10 11 11 11 11 12 12 14 14 15 17 18 18 19 20
2 0 2 3 4 7 10 11 10 9 10 12 15 17 16 14 14 15 15 14 15 16 16 15 17 18 18 21 23 20 16 16 18 18 15 15 20 24 25 24 23 20 17 18 20 23 24 24 24 24 23 23 24 24 24 24 25 24 23 22 21 19 17 16 16 15 14 12 12 11 11 11 11 11 11 12 12 12 13 14 15 16 16 16 18 19
Wind_Direction
89 85 258 229 221 225 225 201 195 194 157 149 179 211 240 247 269 260 259 288 281 244 264 241 248 266 270 272 272 258 200 224 244 245 247 243 237 233 227 231 230 229 236 233 224 223 222 221 219 218 216 215 215 216 214 212 211 209 206 205 204 204 203 201 201 201 202 202 202 203 203 205 206 208 209 212 215 216 217 218 218 219 220 221 221 221
76 230 242 227 222 215 206 181 151 138 138 142 194 243 273 237 261 269 249 298 332 196 270 293 285 274 270 272 276 264 218 234 240 237 246 245 238 236 230 233 234 235 242 235 224 222 221 220 217 215 212 211 211 213 212 212 212 210 207 207 207 206 203 203 203 203 204 205 206 205 205 207 207 208 210 213 215 217 218 219 220 220 221 222 222 223
343 249 247 228 202 147 113 126 125 125 147 151 148 229 280 248 278 294 292 322 354 193 276 341 317 280 277 275 273 266 240 242 241 231 241 244 240 236 229 232 234 237 240 230 224 220 217 217 214 211 211 210 211 211 211 212 211 209 208 208 208 207 206 206 207 207 208 209 210 210 210 210 209 211 214 217 219 219 219 219 220 221 222 222 222 224
265 255 252 206 147 136 112 100 116 98 147 186 168 199 263 257 299 287 300 328 282 221 277 326 314 281 283 285 274 263 245 252 253 237 242 241 237 236 229 230 229 230 232 226 224 218 213 213 211 210 210 210 210 210 210 210 209 208 208 208 207 207 208 208 209 210 211 211 211 211 213 213 212 214 216 217 218 219 219 219 220 221 221 221 222 224
239 243 179 105 115 147 169 162 149 186 271 255 204 210 246 252 226 238 285 318 297 300 284 319 316 282 287 305 287 274 260 272 264 243 254 244 237 244 240 237 230 225 227 224 223 218 210 211 211 211 211 210 209 209 210 209 208 208 209 209 208 208 209 210 210 211 210 209 207 207 209 210 211 213 212 211 214 216 217 218 219 220 220 220 222 224
260 253 137 118 94 122 163 229 201 186 247 299 232 221 230 231 226 252 327 342 341 332 284 53 349 286 304 308 285 294 318 291 279 246 262 255 238 240 240 239 233 228 229 225 224 218 210 212 213 213 213 210 211 213 213 212 210 210 210 210 209 210 210 211 211 210 208 207 205 202 201 201 203 207 209 210 213 213 214 217 219 220 220 220 223 224
262 333 88 135 149 134 169 249 233 171 165 299 259 215 195 159 137 354 3 7 324 286 258 112 110 267 302 298 281 300 317 294 290 265 262 261 241 227 233 239 233 230 229 227 226 217 210 211 210 212 213 211 214 216 215 214 213 213 213 212 212 212 212 212 211 209 208 206 205 204 204 204 204 206 211 214 215 215 216 218 219 220 220 221 223 225
175 77 52 109 133 151 198 252 227 156 136 251 241 124 118 114 132 175 87 132 234 285 282 161 155 233 285 283 284 341 320 299 297 285 273 266 248 228 234 240 233 230 225 222 223 217 212 210 208 211 212 212 215 217 214 213 214 215 215 215 214 213 213 213 211 209 208 207 207 207 207 209 209 211 215 216 216 217 218 217 218 220 221 222 224 225
158 165 189 157 133 189 215 230 193 159 159 241 201 116 106 113 148 144 116 203 276 354 303 229 156 214 261 266 300 2 308 294 293 287 280 272 262 242 240 243 240 238 230 224 223 218 215 211 211 213 214 215 216 216 213 213 215 215 215 215 215 214 213 213 212 210 210 209 209 209 209 211 213 216 218 218 216 216 217 217 219 220 221 223 225 225
199 203 195 157 162 214 218 222 183 172 194 210 138 102 63 73 83 89 112 154 56 6 267 236 170 213 266 264 289 323 267 265 270 276 272 269 273 263 254 252 248 244 236 231 228 224 220 216 217 217 217 218 218 216 215 215 215 215 214 214 214 215 214 213 213 211 211 211 210 210 210 212 214 216 217 217 217 216 216 217 219 221 222 223 224 224
315 279 186 158 191 198 159 115 165 174 162 130 108 76 28 40 56 44 81 93 61 263 258 228 181 204 272 265 247 240 227 227 245 277 280 273 281 276 264 261 259 254 244 240 239 238 232 226 224 221 220 222 220 218 216 216 216 215 214 213 214 215 214 213 213 212 212 211 211 212 212 214 215 215 215 214 215 215 215 216 218 221 222 223 223 222
331 176 227 243 188 137 111 83 52 62 107 112 86 64 11 341 24 18 357 55 110 248 263 246 188 198 245 254 245 246 255 243 225 258 276 283 290 288 282 280 281 278 268 259 252 247 240 230 222 215 217 220 218 216 215 216 215 215 214 214 214 215 214 214 213 213 213 212 212 214 215 216 217 216 215 215 215 215 215 216 218 219 220 221 221 220
286 216 252 304 189 141 121 88 24 6 59 108 100 77 43 324 343 337 305 247 218 244 261 241 177 210 241 254 266 272 276 269 242 240 264 283 293 295 300 309 322 321 304 294 277 262 245 227 215 211 215 215 212 213 214 215 214 214 214 213 213 215 215 214 214 214 214 214 214 215 216 218 218 218 218 218 218 217 217 217 217 217 217 217 217 217
312 303 343 140 268 184 153 156 201 248 159 151 156 134 135 161 282 273 264 271 270 266 277 99 146 252 273 267 255 253 265 275 291 308 286 291 302 305 314 326 342 346 331 313 299 287 270 252 239 226 219 214 213 215 215 214 214 214 214 213 214 217 216 215 214 215 215 215 217 217 218 218 218 218 219 220 220 220 219 218 217 217 216 215 215 216
278 305 227 180 235 174 179 196 167 143 153 178 160 137 157 165 186 241 237 240 271 289 302 305 176 206 238 279 257 246 268 308 353 360 347 345 335 327 336 346 349 348 341 330 317 307 300 297 289 263 243 229 223 222 219 217 216 215 215 215 216 217 217 216 215 216 216 217 218 218 219 219 219 219 220 221 222 221 221 220 219 218 217 216 216 217
206 266 254 255 305 167 192 216 125 115 134 212 133 117 194 191 178 228 219 193 226 328 303 254 226 218 222 303 323 315 333 2 11 9 13 10 359 359 4 3 359 354 351 347 339 329 323 325 323 304 282 264 248 237 228 223 220 218 219 219 219 220 219 218 217 217 218 219 219 219 219 219 219 220 220 221 222 222 222 222 220 219 218 217 217 217
251 274 278 6 301 200 191 195 154 163 175 168 144 188 234 193 147 217 272 49 76 289 270 232 253 283 305 343 0 5 6 13 11 9 15 10 6 11 11 5 3 0 358 357 354 348 341 341 343 338 323 303 282 263 247 237 229 225 225 224 224 225 223 221 221 221 221 220 220 220 220 220 220 220 220 221 222 222 222 222 221 220 219 218 218 219
207 282 282 153 264 270 209 272 292 272 153 136 188 240 256 170 108 105 262 323 21 240 267 277 263 297 341 338 7 10 5 5 4 3 8 8 10 11 7 5 4 2 3 4 7 6 2 359 356 350 342 332 316 294 274 259 247 238 235 232 231 231 228 226 225 224 224 222 222 222 221 221 221 221 222 222 222 222 221 221 221 220 220 219 219 220
114 289 302 38 263 306 8 14 302 299 128 139 212 268 18 187 252 56 165 253 257 253 276 282 270 307 12 321 355 4 356 357 358 360 7 6 7 7 4 4 3 3 5 6 8 9 9 9 4 358 351 344 336 323 306 289 271 254 245 240 238 238 236 233 231 229 227 226 225 225 224 223 223 222 223 222 222 221 221 221 220 220 220 220 220 220
84 250 289 320 291 306 2 75 252 305 33 75 303 321 41 179 210 179 187 203 203 259 274 288 291 324 55 321 345 351 348 357 357 359 5 1 2 6 7 5 2 3 4 3 4 4 6 9 9 9 4 356 349 338 324 310 294 277 263 252 247 245 243 240 237 234 232 229 228 228 227 226 225 224 223 223 222 221 221 221 220 220 220 220 220 219
9 157 252 299 336 324 280 200 191 187 157 158 257 285 262 221 228 273 249 175 169 246 261 280 283 242 126 339 355 354 352 0 357 357 357 354 1 7 8 7 3 1 2 0 2 1 2 6 8 10 9 7 4 356 343 328 312 300 287 274 262 254 249 245 241 238 236 233 230 229 229 229 227 225 224 223 222 222 221 221 220 220 220 220 219 217
231 174 231 294 312 282 261 222 190 190 178 171 199 226 214 189 188 281 271 234 176 224 200 238 279 276 118 341 9 2 356 1 358 357 355 352 1 7 6 6 2 1 1 359 360 360 1 5 6 5 5 7 7 4 358 349 335 322 308 294 281 269 260 253 247 243 239 236 233 231 231 230 228 226 225 223 222 222 221 220 220 219 219 218 217 217
185 150 235 274 273 272 276 281 146 202 156 138 175 176 125 151 140 224 265 286 346 283 189 204 275 257 187 338 11 5 356 2 359 0 360 352 356 6 3 0 360 360 359 358 359 359 360 3 3 2 3 4 3 2 1 357 349 337 321 307 293 280 270 262 256 249 244 239 236 233 231 230 228 226 224 222 221 220 220 219 218 217 216 216 215 215
178 149 243 278 287 286 288 33 36 13 89 100 285 23 22 217 163 214 248 228 288 281 293 295 275 233 154 31 13 8 357 5 4 4 2 352 352 3 2 359 359 356 355 357 358 357 358 360 2 2 1 0 359 358 357 356 352 345 333 318 302 288 278 269 261 254 247 241 238 234 231 229 227 225 222 220 219 218 217 216 215 214 213 213 213 212
269 225 320 320 314 304 314 3 354 346 38 111 250 353 14 355 340 302 284 112 225 264 271 268 270 236 157 13 3 8 5 8 11 8 3 355 350 354 358 358 357 354 354 354 355 354 355 358 360 359 356 356 356 355 353 352 350 347 341 329 314 299 287 276 265 257 250 243 238 234 231 229 226 224 221 219 218 217 215 213 212 211 211 210 211 211
265 291 343 290 292 289 300 314 310 331 337 298 322 25 25 6 340 315 304 273 257 286 287 269 279 296 5 4 1 0 359 358 358 360 0 356 350 348 351 354 354 356 354 352 352 352 353 356 356 354 352 351 353 352 350 348 346 345 342 337 327 312 296 284 272 261 253 245 239 235 232 229 226 224 222 220 218 216 214 212 211 210 209 210 211 211
292 352 144 209 250 265 279 289 297 333 317 311 344 8 15 3 351 24 54 260 289 317 300 300 334 328 352 3 357 350 349 347 346 350 352 350 346 344 346 348 349 352 351 349 349 349 351 355 353 350 347 347 348 348 347 345 343 341 340 338 335 324 308 293 278 265 256 248 242 237 234 231 229 226 223 219 218 215 213 212 211 210 210 210 211 212
22 313 252 210 248 265 286 301 306 320 319 330 356 354 354 5 26 53 55 282 315 305 281 345 11 341 351 3 352 341 341 337 335 340 343 341 337 334 340 344 345 347 346 345 347 352 354 352 347 345 344 345 345 344 342 341 340 338 336 335 334 331 319 302 285 270 260 251 244 240 237 234 231 227 223 220 218 215 213 211 210 210 211 211 212 213
123 273 266 247 275 284 300 296 291 299 94 82 30 352 345 2 38 54 351 281 313 291 287 339 346 300 342 0 347 338 334 326 322 326 332 332 328 325 333 341 342 344 342 341 346 354 354 349 343 341 340 341 342 340 339 338 336 335 333 330 330 330 325 313 292 274 264 254 248 245 241 237 233 228 224 221 218 215 213 211 211 210 211 213 213 213
124 269 295 302 289 293 297 281 272 134 114 77 31 1 346 351 22 29 319 272 267 268 286 323 314 283 331 3 342 332 327 317 310 312 323 329 325 323 327 336 340 341 338 339 346 352 349 343 340 338 337 337 338 338 337 334 332 331 329 327 326 325 325 318 299 279 268 259 254 250 245 239 233 228 224 220 218 215 213 211 210 211 211 212 213 213
83 280 330 2 301 293 286 264 265 127 121 92 36 7 349 349 359 0 334 298 240 264 282 305 298 278 315 11 337 323 323 323 317 317 323 327 323 318 321 330 333 335 335 337 344 347 342 337 336 335 333 333 335 335 332 329 327 326 324 323 322 320 320 318 305 285 269 262 258 252 245 238 232 227 223 220 217 215 213 211 210 210 210 210 210 210
62 282 340 33 325 293 269 260 287 20 117 101 39 7 351 350 344 334 318 297 252 258 286 296 293 293 339 350 330 321 328 330 324 322 326 324 318 314 318 324 322 328 336 338 340 340 335 332 333 330 327 330 332 331 328 326 324 322 321 320 319 316 315 313 307 291 274 266 259 250 242 236 230 225 221 218 216 214 212 210 209 208 207 207 207 208
107 278 318 29 309 294 306 308 310 333 108 4 6 2 326 310 317 326 318 301 269 229 271 288 284 312 331 332 329 327 331 331 327 328 329 320 315 311 304 310 321 333 335 332 329 329 329 330 328 324 323 327 328 325 325 325 322 318 318 318 316 315 311 309 308 298 283 270 260 249 241 234 227 223 220 217 215 213 210 208 207 206 206 206 207 208
71 115 264 198 229 294 310 323 324 314 302 269 150 119 344 307 314 329 311 293 273 209 211 295 289 309 327 329 326 322 323 326 325 325 322 312 307 308 315 328 337 334 326 321 322 327 330 328 324 322 323 324 323 324 325 323 320 316 315 315 315 313 309 306 306 302 291 277 263 251 241 232 226 222 219 216 213 210 208 206 206 205 205 205 206 207
348 342 285 213 193 282 317 344 333 296 274 165 154 78 2 311 291 317 301 278 256 217 266 310 313 322 328 324 319 315 318 324 323 319 311 298 290 322 338 340 335 322 315 319 328 331 330 328 326 324 323 322 324 327 325 322 320 317 315 314 313 311 307 304 303 301 295 282 267 253 240 231 225 221 218 214 210 208 207 206 205 204 204 205 206 209
328 324 300 192 217 289 350 8 315 282 139 142 168 12 6 327 312 337 323 281 213 234 286 319 322 320 315 311 315 322 323 321 317 309 301 298 329 354 345 333 321 312 314 326 328 328 328 329 327 321 319 321 325 326 323 321 320 318 315 314 313 310 307 304 301 299 294 283 269 255 240 231 224 219 215 211 207 206 205 204 204 203 203 204 206 209
120 150 56 73 239 312 304 273 268 281 340 85 22 357 358 334 330 333 311 283 237 65 343 325 316 313 312 314 323 328 324 319 311 305 313 334 348 343 329 315 307 306 319 327 324 324 327 328 324 317 316 321 324 323 322 320 319 317 314 313 312 311 308 304 301 298 292 283 271 258 243 232 224 217 213 208 205 205 204 203 203 202 203 203 204 206
66 61 121 128 279 84 352 295 300 302 288 168 357 323 321 303 296 291 284 284 52 60 0 325 318 320 323 325 327 327 330 326 314 311 337 338 329 322 316 313 310 310 320 323 321 322 325 325 321 316 317 322 322 322 323 321 319 317 312 310 312 312 309 306 303 300 294 285 275 263 246 233 223 216 211 207 205 204 203 202 202 202 203 204 205 207
24 4 100 99 345 58 47 279 272 278 249 184 309 324 324 299 301 306 288 276 33 7 338 325 317 313 314 317 321 330 341 330 311 309 326 325 317 315 318 320 320 319 318 317 316 318 322 322 318 315 316 319 320 322 324 322 321 319 315 314 316 314 310 308 307 304 299 291 281 266 247 233 223 216 211 208 206 204 203 201 202 202 204 206 208 210
9 357 48 66 284 251 237 241 249 264 234 229 310 336 332 308 328 360 313 290 335 334 323 313 303 303 308 310 314 328 335 312 298 305 316 316 312 312 314 316 319 318 315 313 312 316 320 320 318 314 313 316 319 322 324 323 322 320 318 318 318 315 314 314 312 309 303 295 283 264 245 231 222 215 211 209 206 204 202 201 201 202 205 207 210 212
1 347 47 107 215 242 240 237 268 280 233 274 327 347 346 333 357 9 306 302 317 314 306 299 296 302 309 309 309 318 305 286 284 294 305 308 306 306 308 309 311 312 311 311 313 316 318 318 317 313 309 312 320 323 323 323 322 320 321 321 320 319 320 319 316 311 304 293 278 258 239 227 219 214 211 209 206 203 202 202 203 204 205 207 209 211
37 315 338 88 205 238 209 210 294 288 216 341 342 342 2 359 341 310 300 303 305 301 297 296 296 300 307 307 305 303 294 288 286 289 295 300 298 298 302 306 308 310 311 312 313 314 315 316 317 313 308 313 321 323 323 322 319 318 320 320 320 322 324 322 318 312 303 289 272 251 234 223 217 212 210 208 205 202 201 203 205 206 207 207 208 209
172 189 297 269 210 274 325 308 320 273 238 3 354 340 28 11 311 297 303 303 299 293 289 293 296 297 299 300 297 294 291 290 290 290 290 291 291 294 298 301 304 307 311 312 311 313 316 318 317 313 310 317 324 325 324 323 318 319 321 319 320 324 326 323 318 312 301 286 268 247 232 222 214 210 207 206 204 202 201 201 203 206 207 207 208 208
181 153 238 264 192 95 314 248 242 251 283 351 356 321 314 317 300 304 311 306 302 294 284 289 293 289 289 294 295 294 293 293 292 290 289 287 288 292 294 296 299 303 308 310 310 313 319 319 316 313 314 321 325 324 324 323 319 319 320 320 323 327 327 323 318 309 298 284 265 245 231 219 212 209 206 204 203 201 200 201 202 204 206 207 207 207
206 170 174 211 211 175 210 232 254 293 315 341 358 288 307 308 303 309 309 302 299 296 289 293 295 294 296 295 293 293 294 294 292 289 288 287 288 290 292 294 296 299 304 307 307 312 319 319 315 313 316 321 322 321 321 322 320 317 318 322 326 328 327 324 317 307 298 285 268 249 233 219 212 209 207 206 205 202 202 202 202 202 205 206 206 206
223 140 127 139 285 288 252 243 277 310 322 325 310 301 303 303 305 313 311 305 303 300 296 296 296 300 304 303 299 300 298 296 294 291 288 286 286 289 291 292 294 297 302 304 306 313 319 318 313 312 314 317 318 318 319 320 319 316 317 322 327 328 327 324 316 307 300 288 273 255 237 224 216 211 210 211 211 211 212 211 208 206 205 205 206 208
335 72 84 103 299 314 308 299 318 327 320 312 306 301 301 304 310 314 311 308 304 296 293 295 299 303 306 306 306 304 300 299 297 292 290 288 287 290 292 292 292 295 298 300 305 313 318 317 313 312 312 313 315 318 319 318 317 317 319 324 328 328 327 323 315 307 300 291 276 261 243 230 223 218 218 218 216 217 219 218 215 212 208 208 209 209
305 54 30 285 266 281 286 298 315 314 299 293 298 303 310 315 314 313 309 304 300 296 297 303 307 308 306 305 304 299 296 296 294 291 291 291 290 291 293 292 292 293 295 299 305 312 316 313 310 309 309 310 313 316 317 317 316 317 322 327 330 330 326 320 314 305 298 289 277 265 252 241 237 233 229 227 226 224 223 223 222 219 219 220 219 216
109 38 327 300 298 289 288 303 316 310 293 282 293 306 310 311 310 309 306 302 301 303 306 308 307 303 300 298 297 294 292 291 290 290 292 293 294 296 295 294 293 293 294 298 306 312 313 309 306 306 306 307 310 313 315 315 316 318 324 329 333 331 325 318 312 304 295 287 278 268 258 249 245 242 239 239 237 234 233 233 232 231 232 234 233 231
32 13 328 330 324 309 304 309 316 312 301 299 310 313 312 309 304 302 301 302 306 307 306 305 303 299 296 293 291 290 291 293 296 296 294 293 295 298 299 298 295 292 294 302 309 313 312 308 304 305 305 306 308 311 312 313 316 319 325 330 333 331 325 317 310 303 295 287 279 271 263 256 251 248 246 245 242 240 239 238 239 240 242 243 244 244
70 288 321 328 296 283 290 298 304 303 298 302 309 311 309 306 301 296 296 301 304 303 302 302 301 302 301 298 296 295 294 298 305 305 299 297 300 301 301 298 293 292 300 309 313 314 313 309 306 306 306 306 307 308 310 313 317 321 325 328 331 329 324 316 307 298 292 288 281 275 270 264 258 254 251 248 246 244 243 242 243 244 243 245 251 254
Height
817 815 817 816 813 812 813 819 820 821 825 823 822 822 822 822 817 813 811 816 822 813 803 806 806 798 788 782 779 780 787 788 784 784 781 779 779 779 781 779 778 776 771 770 775 777 778 780 782 785 787 789 791 792 794 795 796 797 799 801 803 805 808 810 811 814 815 817 819 821 822 823 825 827 829 831 832 833 835 837 838 839 841 843 844 845
819 816 814 813 814 817 819 825 826 826 827 824 822 822 823 826 818 812 815 818 822 816 804 807 807 795 787 780 774 776 781 779 776 777 773 770 772 774 774 774 773 770 768 770 773 773 775 777 778 780 782 784 785 786 788 789 790 793 795 796 798 801 803 805 806 809 810 812 813 814 816 818 821 824 825 827 828 830 832 834 835 837 838 840 841 842
819 814 810 816 825 827 826 829 827 824 825 824 826 825 821 825 820 813 819 822 821 815 804 807 809 791 779 776 770 770 772 768 765 767 764 763 766 768 768 768 767 767 767 768 768 769 770 771 773 775 776 777 778 780 782 783 785 788 789 791 793 796 798 800 802 804 805 807 809 811 813 816 818 821 822 823 825 827 829 830 832 834 835 837 838 840
817 811 814 824 828 824 823 827 826 823 824 823 825 824 818 822 821 809 813 821 818 815 810 810 812 795 776 770 763 761 764 762 761 762 760 761 760 759 760 761 761 762 761 762 762 762 764 766 768 769 769 772 774 776 778 779 781 783 784 785 788 791 793 796 798 800 802 805 808 810 812 814 816 818 820 822 823 824 825 827 828 830 831 833 835 837
811 814 825 828 824 822 820 822 824 821 820 822 824 822 815 817 819 813 815 820 813 815 819 812 802 784 768 764 754 753 761 758 757 759 756 757 757 755 757 755 754 754 753 754 755 756 759 760 761 762 764 767 769 770 771 772 775 776 779 781 784 787 789 792 794 797 800 803 805 808 810 813 815 816 818 818 818 819 821 822 823 825 828 830 832 834
811 821 829 823 822 824 819 819 822 819 819 820 817 816 815 813 816 817 819 817 806 806 813 809 797 775 762 763 754 748 754 752 754 757 750 751 755 755 754 749 747 748 747 748 749 751 754 755 757 759 761 764 765 764 765 768 771 773 776 779 781 783 785 788 790 793 796 798 800 802 805 808 810 811 811 811 811 813 815 817 820 823 825 827 829 831
817 827 828 821 821 823 821 820 821 822 821 817 815 820 822 819 818 817 816 814 806 803 807 811 806 790 773 760 751 753 753 747 749 750 743 744 749 750 748 744 743 744 743 744 745 747 749 750 753 755 756 758 758 758 761 765 768 771 773 775 777 779 781 783 786 789 791 794 795 796 798 800 802 804 804 804 807 809 812 814 817 820 822 824 825 827
819 825 826 823 822 823 821 817 819 823 819 814 822 828 822 818 819 819 818 815 816 813 810 813 812 805 791 762 751 761 754 739 737 737 734 734 738 743 743 740 740 739 739 740 741 742 744 745 747 748 748 750 750 752 758 762 763 765 767 770 772 775 777 779 782 785 786 788 790 792 794 796 797 798 799 801 804 807 810 812 814 816 818 820 822 823
820 817 818 820 820 821 817 814 818 820 813 814 828 832 824 824 823 823 824 820 828 823 802 807 814 805 789 763 754 762 753 737 730 724 723 721 723 732 736 737 738 737 737 737 738 738 739 739 740 740 741 743 745 749 754 756 757 760 763 767 769 771 774 776 778 781 782 784 786 787 790 791 793 795 797 799 801 803 806 808 810 812 814 816 818 820
818 818 819 818 814 812 812 819 825 818 812 820 832 832 829 833 830 829 830 822 830 825 794 795 808 793 774 755 750 755 748 737 727 721 723 722 721 725 728 732 734 735 736 735 735 735 735 736 736 737 740 742 744 747 749 752 755 758 761 763 766 767 770 772 775 776 778 781 782 784 785 787 789 792 795 797 798 800 802 804 806 808 810 812 814 816
821 826 825 819 811 811 816 827 832 824 821 826 828 823 821 830 833 834 837 830 825 809 785 790 799 789 773 752 742 743 736 729 724 722 724 722 721 722 722 727 731 734 736 735 735 734 734 735 736 739 741 741 743 746 749 751 753 754 756 759 760 762 765 768 770 772 774 777 778 779 781 783 785 788 791 792 794 796 798 799 801 803 805 807 810 812
820 821 819 815 815 818 817 822 829 830 830 826 819 814 810 814 823 827 830 831 815 786 780 801 808 798 781 751 734 735 733 734 733 726 721 719 720 721 722 726 732 735 736 735 735 734 734 735 736 738 738 739 742 745 746 747 749 751 753 755 757 759 762 764 766 768 769 772 773 775 777 778 781 784 786 787 788 790 792 794 796 799 801 803 806 808
803 810 817 815 815 817 810 811 823 828 828 823 817 816 811 808 810 806 807 815 805 784 790 812 808 794 778 750 736 737 734 733 735 732 729 728 727 725 726 730 735 740 740 739 738 735 735 734 734 735 734 736 739 740 741 743 746 749 750 752 754 755 757 759 762 763 765 767 768 770 772 774 777 780 781 782 784 786 787 789 792 793 796 798 800 802
790 802 817 812 807 811 806 801 804 810 820 822 814 810 806 804 801 792 796 807 795 783 799 813 802 786 768 745 738 738 731 728 734 741 743 742 742 740 740 742 745 747 746 744 742 739 738 736 735 735 734 736 737 736 739 741 743 746 747 749 750 751 754 756 758 759 761 763 764 766 768 770 773 775 777 778 780 782 783 785 787 788 790 791 793 795
794 788 796 798 797 804 804 798 794 799 815 820 813 809 802 795 790 782 782 782 771 776 800 808 790 770 751 737 737 736 734 738 747 754 755 754 756 754 752 753 753 752 750 747 745 743 742 740 739 738 737 737 737 737 739 740 742 744 745 746 746 747 750 751 753 755 757 758 760 763 764 766 769 770 772 774 776 779 780 782 783 784 786 787 788 791
803 785 791 804 806 807 804 803 804 799 804 817 819 813 803 793 784 781 784 787 786 790 798 793 776 761 746 738 744 745 746 756 763 764 763 763 763 761 758 758 758 756 754 752 750 747 745 743 741 741 741 741 740 740 741 741 742 742 742 743 743 744 747 748 751 752 753 755 757 759 761 763 765 766 768 770 772 774 776 777 779 780 782 784 786 789
800 786 795 808 807 810 809 807 810 798 793 811 816 800 800 804 791 782 793 807 811 799 785 775 763 755 746 743 758 768 768 774 776 773 773 771 769 766 764 764 763 762 761 758 756 753 749 747 745 744 744 744 743 743 743 742 742 742 742 743 744 745 747 748 749 749 750 753 754 756 758 759 761 762 763 765 767 769 772 774 776 778 780 782 784 787
804 789 793 803 798 806 819 813 808 806 800 804 806 796 800 808 797 793 797 800 806 798 783 776 764 757 755 757 778 793 790 790 788 783 782 777 773 773 773 773 771 769 766 762 759 756 753 751 749 747 747 746 746 745 745 744 744 745 744 744 745 745 746 746 747 748 749 751 752 753 754 755 757 758 759 761 763 766 769 771 773 775 777 779 782 785
813 796 793 809 808 806 819 813 799 806 809 803 804 804 802 798 793 799 800 793 795 787 774 770 764 773 790 793 803 813 808 805 800 793 790 785 784 784 782 781 777 774 771 766 763 760 758 756 754 752 751 749 749 748 747 747 746 746 745 744 745 745 745 747 747 748 749 750 751 751 752 753 754 756 757 759 761 763 765 767 769 772 774 777 780 782
814 803 794 808 817 810 810 808 793 794 807 810 810 810 807 805 798 797 798 795 793 783 774 769 757 777 815 823 821 823 818 813 807 801 799 795 794 792 789 789 785 782 779 774 771 767 763 762 759 757 756 753 753 751 750 750 748 747 746 745 745 745 745 746 746 747 747 748 749 750 751 752 752 754 755 757 759 760 762 764 766 769 771 774 777 779
813 811 800 798 812 808 797 798 792 786 793 800 805 806 805 805 801 800 800 796 792 785 782 779 766 785 821 825 823 826 821 817 813 810 807 802 799 797 795 794 791 788 785 780 776 772 768 766 762 760 759 756 755 754 753 752 750 749 748 746 746 745 745 745 745 745 746 746 747 748 749 750 750 752 753 755 756 757 759 762 764 767 769 771 774 776
810 812 807 798 801 794 782 787 791 787 787 788 793 796 799 800 800 801 797 791 793 790 787 783 777 797 822 823 825 829 822 820 818 813 811 805 801 800 798 797 795 792 789 784 780 776 771 768 765 763 762 758 756 755 754 753 751 749 748 747 747 746 745 745 744 744 745 745 746 746 747 748 749 750 751 753 754 755 757 759 762 764 766 768 771 773
814 814 813 804 796 786 783 793 799 795 793 793 794 796 799 799 798 800 796 792 797 797 796 792 785 802 827 826 826 828 821 821 819 814 813 807 802 803 800 798 796 792 790 787 783 779 775 772 770 767 764 761 759 757 755 753 751 750 749 748 748 747 745 745 744 744 744 744 744 745 745 746 747 748 749 750 752 753 754 756 758 761 763 765 768 770
816 812 810 805 795 783 784 797 802 800 796 793 796 801 803 800 799 801 800 802 806 798 796 798 788 799 827 830 824 827 823 820 818 814 813 809 805 804 802 800 798 794 791 788 784 781 778 775 773 770 767 765 762 760 757 755 754 752 751 750 749 747 746 745 744 744 744 743 743 744 744 745 745 746 747 748 749 750 752 753 755 758 760 763 765 768
814 808 808 812 808 794 789 792 794 796 797 793 795 805 810 809 809 808 805 809 810 794 789 797 786 788 818 828 821 821 818 816 816 814 813 811 807 805 804 802 800 797 793 790 787 784 781 778 776 774 771 769 766 763 761 759 757 754 753 751 749 748 746 745 744 744 743 743 743 743 743 743 744 744 745 746 747 748 749 751 752 755 757 760 762 765
816 811 811 817 820 817 810 804 799 802 804 799 803 818 828 827 822 817 813 813 812 800 794 799 793 792 811 821 816 815 814 812 811 810 810 811 808 805 805 803 801 799 796 793 790 787 784 781 779 777 774 772 770 768 765 762 759 756 754 752 750 748 746 745 744 743 742 742 742 741 741 741 742 742 742 743 744 745 747 748 750 752 754 757 760 762
819 819 818 815 816 816 811 807 807 811 810 806 813 830 839 838 832 825 819 819 825 825 814 812 818 819 821 826 824 820 818 815 812 810 810 810 808 806 805 804 802 801 798 795 792 789 786 783 781 780 777 775 773 771 768 765 762 758 755 752 750 748 746 745 744 742 742 741 740 740 740 739 739 740 741 742 743 744 745 747 748 750 753 755 757 760
822 821 821 817 814 812 811 812 812 813 818 824 832 839 842 841 838 835 833 833 838 836 821 819 832 833 830 835 834 827 823 820 817 814 812 812 810 808 806 805 804 801 799 796 794 790 788 786 784 781 779 777 774 772 769 766 763 761 757 754 751 749 746 745 743 741 740 740 739 738 737 737 738 738 739 740 741 742 743 745 747 749 751 753 755 757
828 824 823 823 819 816 819 819 813 815 829 843 848 845 842 841 840 843 846 845 844 838 829 830 836 834 835 839 835 831 828 823 818 817 815 814 811 809 808 807 806 804 801 797 794 792 790 788 786 784 781 778 776 772 770 767 764 761 758 755 752 749 747 744 742 740 739 738 737 736 735 736 736 737 738 738 739 740 741 743 745 746 748 751 753 755
832 829 829 829 824 820 821 818 814 819 832 847 853 849 844 840 838 841 845 843 841 838 834 837 836 831 832 835 833 831 828 822 819 817 816 815 812 809 808 808 808 806 803 799 796 794 792 790 788 785 782 780 777 774 771 767 764 762 759 756 752 749 747 744 741 739 738 735 734 733 734 734 734 735 735 736 736 738 739 740 742 744 746 748 750 753
834 834 834 832 828 823 819 816 817 821 828 843 853 850 845 842 838 839 841 840 842 840 836 838 837 830 827 831 832 830 826 823 819 816 816 816 813 810 809 809 808 805 802 799 797 794 792 791 789 786 783 780 778 775 772 768 764 761 758 756 753 749 747 744 741 738 735 733 731 731 732 731 732 733 733 734 734 735 737 738 740 742 744 746 748 751
835 837 836 837 835 826 818 815 818 825 832 843 853 852 847 845 842 841 840 837 839 840 838 838 837 830 827 830 830 827 826 823 819 817 817 815 811 810 810 808 807 804 801 798 795 794 792 790 788 786 783 780 778 775 773 769 764 760 757 754 751 749 746 742 739 736 732 731 729 729 729 729 729 730 730 731 732 733 735 736 738 740 741 744 746 749
842 840 837 841 839 825 818 818 820 827 830 834 846 853 850 846 844 842 840 836 835 838 841 839 836 831 830 832 831 828 825 822 819 817 817 814 811 810 809 808 805 801 798 796 794 793 791 789 788 785 782 780 778 775 772 769 765 760 756 753 749 746 743 740 737 733 730 728 727 726 726 726 727 727 728 729 730 731 733 734 735 737 739 742 745 747
846 845 843 845 840 826 820 821 822 823 823 829 843 851 849 846 846 846 843 837 834 836 839 839 837 834 834 835 834 830 826 823 821 818 818 815 810 809 808 805 802 799 797 795 793 792 790 788 786 783 782 780 776 774 771 769 765 760 755 752 748 744 741 737 733 730 726 724 723 722 722 723 724 724 725 726 728 729 730 731 733 735 737 740 742 745
841 843 845 846 842 832 826 829 831 826 825 836 846 847 846 846 845 845 842 835 834 837 839 840 838 836 836 835 833 830 826 823 821 819 817 813 809 809 808 804 803 801 797 794 792 791 789 786 784 781 780 778 775 772 769 766 763 758 752 749 745 741 737 733 729 726 723 721 719 719 719 720 720 721 722 724 725 727 728 729 731 733 735 738 740 742
840 842 846 847 843 837 835 841 843 835 834 845 846 843 847 848 845 846 843 835 836 838 839 841 840 836 836 835 831 828 825 821 819 817 814 810 808 809 809 807 805 801 796 794 793 790 788 786 784 781 778 775 774 771 768 763 760 755 749 745 742 738 733 730 726 722 720 718 716 716 716 716 717 718 720 721 722 724 726 727 729 731 733 736 738 740
844 843 846 847 843 843 846 847 842 833 836 849 852 849 852 852 850 853 850 840 838 840 841 842 839 835 834 831 828 827 825 820 816 813 812 811 810 811 812 810 805 799 797 795 792 789 788 786 783 780 776 774 772 769 767 763 758 754 748 743 739 735 730 727 723 719 717 715 713 713 713 713 714 715 717 718 719 721 723 725 727 730 732 734 736 738
847 846 847 846 844 845 850 852 849 841 840 852 860 855 852 851 849 851 850 842 839 841 841 840 838 834 830 828 826 825 823 819 814 810 811 814 813 812 811 807 803 800 797 794 791 788 786 784 781 778 774 771 768 766 764 760 755 752 746 741 737 733 728 724 720 717 714 712 711 711 711 711 712 713 714 715 717 718 721 723 725 727 730 732 734 736
849 850 849 848 849 850 853 859 858 847 844 856 861 852 850 850 845 844 844 838 836 839 839 837 836 833 829 828 827 825 826 825 816 807 808 812 811 810 807 804 802 800 797 794 791 788 784 782 779 775 773 770 766 762 760 756 752 748 743 739 735 731 727 723 719 715 713 710 709 709 709 709 710 711 712 713 714 716 718 721 723 725 728 730 732 735
854 855 854 853 855 856 858 863 857 844 844 856 856 849 850 847 841 845 847 836 833 837 837 835 834 831 828 829 828 826 829 829 820 809 807 808 807 806 805 803 800 798 795 791 789 786 783 780 776 772 770 767 763 760 757 753 749 746 741 737 734 730 726 722 718 715 712 709 707 707 706 707 708 709 710 711 713 715 717 719 722 724 726 729 731 733
860 863 862 861 861 861 863 864 857 847 849 856 852 848 848 843 844 855 854 842 835 835 833 833 832 828 827 828 827 825 824 823 819 812 808 806 804 801 801 799 797 795 792 788 785 783 780 776 774 771 767 764 762 759 755 752 748 744 739 736 732 728 725 721 718 714 711 708 707 705 705 705 706 707 709 710 712 714 716 718 721 722 725 727 729 731
866 866 864 863 863 863 864 867 863 853 851 853 851 846 846 850 856 858 850 842 839 834 830 829 828 827 826 825 823 821 818 815 814 811 807 805 802 798 796 795 792 790 787 784 782 779 776 772 769 766 763 761 759 757 754 752 748 743 739 735 731 727 724 720 717 713 710 708 706 705 705 705 705 707 708 710 711 713 715 717 719 721 723 725 727 729
864 864 864 864 864 866 868 868 864 856 849 849 849 847 849 855 858 852 844 840 838 833 830 828 826 826 825 822 818 817 813 810 808 806 803 801 798 795 793 791 789 785 782 779 777 775 772 768 764 761 759 757 755 753 752 749 746 742 739 735 731 727 723 719 716 713 711 709 707 706 706 705 706 707 707 709 711 712 714 716 718 720 722 724 725 727
860 861 863 863 863 871 874 865 854 850 849 849 851 852 852 852 851 847 843 838 833 830 829 826 824 823 822 819 815 812 809 807 803 800 798 795 792 791 788 786 785 783 779 776 773 770 769 765 761 758 756 754 752 750 749 747 744 740 736 733 729 726 723 719 717 714 712 710 708 708 707 707 707 707 708 709 711 712 714 716 717 719 721 722 724 725
856 857 860 861 859 863 865 856 848 848 850 850 851 852 850 848 846 845 843 838 831 828 827 825 822 819 817 815 812 808 805 803 798 795 793 789 786 785 783 781 781 779 776 773 770 768 766 763 759 755 752 751 750 748 746 745 742 738 735 731 728 725 722 719 717 714 713 711 710 709 708 708 708 709 709 710 711 712 714 715 716 718 719 721 722 724
857 857 860 862 860 859 857 851 850 852 851 850 850 849 847 845 843 843 841 836 831 827 825 823 819 814 812 811 808 803 800 797 794 790 787 784 781 779 778 777 775 774 772 770 767 765 763 760 757 754 750 748 747 746 744 743 740 737 734 730 727 724 722 719 717 715 713 712 711 710 709 709 709 709 710 711 712 713 714 714 716 717 718 720 721 722
860 860 860 861 862 863 859 851 850 852 851 850 848 845 844 843 842 841 839 835 830 827 823 820 817 813 811 809 806 801 796 793 790 785 781 779 777 775 774 772 770 769 768 766 764 763 760 757 754 751 748 745 744 743 742 740 738 735 732 729 726 724 721 719 717 715 713 712 711 711 710 710 710 710 711 711 712 713 714 714 715 716 717 718 719 721
861 861 863 864 864 865 859 852 851 851 849 849 848 845 843 842 839 838 836 832 828 824 821 818 816 813 810 806 804 799 794 790 788 782 777 775 773 772 770 767 765 765 763 762 762 760 758 755 752 748 746 743 741 740 739 737 735 733 730 727 725 722 720 718 716 715 714 712 711 711 711 710 710 710 711 711 711 712 712 713 714 714 715 716 717 718
863 862 865 867 866 864 859 854 852 850 845 844 845 844 843 841 837 834 832 828 825 822 819 816 814 812 809 805 801 797 791 787 784 780 775 772 770 769 766 763 761 760 759 758 758 757 755 753 750 747 744 741 739 738 736 734 732 730 728 726 723 721 719 717 716 715 713 712 711 711 710 710 710 710 710 710 710 711 711 712 713 713 714 715 716 717
866 866 869 872 870 867 861 857 855 853 847 842 841 840 839 838 835 831 827 824 822 819 816 813 809 807 806 802 798 794 789 783 780 778 774 770 768 765 762 760 758 756 755 755 754 753 752 750 747 745 742 740 738 736 734 732 730 728 727 725 722 721 719 716 715 714 712 711 711 710 710 710 709 709 710 710 710 710 711 711 712 713 713 714 715 716
870 871 873 873 871 866 860 856 855 854 848 842 839 837 835 833 831 828 824 821 818 815 813 810 806 802 799 796 794 791 787 781 778 775 772 768 765 762 760 758 755 753 752 752 751 749 747 746 744 742 740 738 736 734 732 730 728 726 725 724 721 720 718 716 714 713 711 711 710 709 709 709 709 709 709 709 709 710 710 710 711 712 713 713 714 714